ANE62BX LEPA-LEVC

Flight info

Callsign ANE62BX
Flight time 0h 51m
Altitude 15000
Route EPAMA N733 ARGOR
Aircraft AT76/M-SDFGIRY/S

Departure

Time 2026-05-07 09:55
Airport Palma de Mallorca Airport (LEPA)

Arrival

Time 2026-05-07 10:46
Airport Valencia Airport (LEVC)
Time Latitude Longitude Altitude Speed Heading
2026-05-07 09:19 39.54998 2.73278 35 ft 0 kts 185°
2026-05-07 09:48 39.54996 2.73278 35 ft 2 kts 186°
2026-05-07 09:48 39.54994 2.73269 35 ft 2 kts 266°
2026-05-07 09:48 39.55005 2.73266 35 ft 2 kts
2026-05-07 09:49 39.55021 2.73270 35 ft 3 kts 12°
2026-05-07 09:49 39.55038 2.73283 35 ft 3 kts 41°
2026-05-07 09:49 39.55052 2.73313 35 ft 7 kts 68°
2026-05-07 09:49 39.55081 2.73390 35 ft 12 kts 62°
2026-05-07 09:50 39.55132 2.73497 35 ft 16 kts 57°
2026-05-07 09:50 39.55180 2.73616 35 ft 10 kts 94°
2026-05-07 09:50 39.55175 2.73684 35 ft 9 kts 68°
2026-05-07 09:50 39.55168 2.73782 35 ft 13 kts 81°
2026-05-07 09:51 39.55163 2.73862 35 ft 13 kts 143°
2026-05-07 09:51 39.55044 2.73956 35 ft 25 kts 149°
2026-05-07 09:51 39.54910 2.74060 35 ft 21 kts 149°
2026-05-07 09:51 39.54806 2.74121 35 ft 16 kts 189°
2026-05-07 09:52 39.54722 2.73986 35 ft 24 kts 239°
2026-05-07 09:52 39.54626 2.73785 35 ft 31 kts 237°
2026-05-07 09:52 39.54536 2.73593 35 ft 23 kts 238°
2026-05-07 09:52 39.54450 2.73411 35 ft 25 kts 238°
2026-05-07 09:53 39.54364 2.73228 35 ft 20 kts 240°
2026-05-07 09:53 39.54291 2.73172 35 ft 13 kts 144°
2026-05-07 09:53 39.54268 2.73249 35 ft 10 kts 92°
2026-05-07 09:53 39.54269 2.73417 35 ft 20 kts 89°
2026-05-07 09:54 39.54284 2.73502 35 ft 0 kts 58°
2026-05-07 09:54 39.54394 2.73733 35 ft 64 kts 58°
2026-05-07 09:54 39.54730 2.74442 54 ft 115 kts 59°
2026-05-07 09:55 39.55191 2.75379 465 ft 128 kts 58°
2026-05-07 09:55 39.55672 2.76339 1104 ft 127 kts 57°
2026-05-07 09:55 39.56189 2.77335 1449 ft 141 kts 57°
2026-05-07 09:55 39.56801 2.78470 1583 ft 162 kts 58°
2026-05-07 09:56 39.57440 2.79690 1993 ft 165 kts 58°
2026-05-07 09:56 39.58056 2.80934 2482 ft 164 kts 59°
2026-05-07 09:56 39.58672 2.82174 2953 ft 164 kts 60°
2026-05-07 09:56 39.59284 2.83411 3392 ft 163 kts 60°
2026-05-07 09:57 39.59900 2.84655 3796 ft 165 kts 60°
2026-05-07 09:57 39.60531 2.85928 4165 ft 169 kts 60°
2026-05-07 09:57 39.61174 2.87212 4585 ft 170 kts 60°
2026-05-07 09:57 39.61813 2.88496 5019 ft 169 kts 60°
2026-05-07 09:58 39.62507 2.89749 5349 ft 175 kts 44°
2026-05-07 09:58 39.63672 2.90218 5685 ft 187 kts 355°
2026-05-07 09:58 39.64872 2.89519 5996 ft 193 kts 332°
2026-05-07 09:58 39.66022 2.88616 6394 ft 193 kts 332°
2026-05-07 09:59 39.67119 2.87580 6713 ft 197 kts 322°
2026-05-07 09:59 39.68138 2.86398 7080 ft 197 kts 315°
2026-05-07 09:59 39.69048 2.85041 7389 ft 201 kts 310°
2026-05-07 09:59 39.69827 2.83560 7785 ft 198 kts 300°
2026-05-07 10:00 39.70291 2.81908 8115 ft 197 kts 278°
2026-05-07 10:00 39.70323 2.80138 8413 ft 196 kts 253°
2026-05-07 10:00 39.69946 2.78425 8687 ft 198 kts 251°
2026-05-07 10:00 39.69559 2.76706 9050 ft 198 kts 251°
2026-05-07 10:01 39.69170 2.74990 9398 ft 198 kts 250°
2026-05-07 10:01 39.68906 2.73251 9707 ft 200 kts 274°
2026-05-07 10:01 39.69436 2.71581 10024 ft 203 kts 299°
2026-05-07 10:01 39.70093 2.69956 10319 ft 203 kts 290°
2026-05-07 10:02 39.70610 2.68255 10623 ft 203 kts 289°
2026-05-07 10:02 39.71117 2.66568 10925 ft 203 kts 290°
2026-05-07 10:02 39.71661 2.64871 11248 ft 204 kts 291°
2026-05-07 10:02 39.72240 2.63182 11565 ft 205 kts 292°
2026-05-07 10:03 39.72825 2.61491 11874 ft 205 kts 292°
2026-05-07 10:03 39.73412 2.59798 12161 ft 206 kts 291°
2026-05-07 10:03 39.74007 2.58101 12421 ft 207 kts 290°
2026-05-07 10:03 39.74608 2.56394 12709 ft 207 kts 290°
2026-05-07 10:04 39.75204 2.54683 12995 ft 208 kts 290°
2026-05-07 10:04 39.75798 2.52965 13287 ft 208 kts 289°
2026-05-07 10:04 39.76386 2.51242 13575 ft 209 kts 289°
2026-05-07 10:04 39.76975 2.49515 13846 ft 209 kts 289°
2026-05-07 10:05 39.77565 2.47785 14094 ft 209 kts 289°
2026-05-07 10:05 39.78157 2.46054 14355 ft 208 kts 289°
2026-05-07 10:05 39.78744 2.44352 14627 ft 206 kts 290°
2026-05-07 10:05 39.79329 2.42653 14816 ft 208 kts 290°
2026-05-07 10:06 39.79927 2.40902 14896 ft 216 kts 290°
2026-05-07 10:06 39.80549 2.39084 14940 ft 224 kts 290°
2026-05-07 10:06 39.81194 2.37199 14958 ft 231 kts 290°
2026-05-07 10:06 39.81856 2.35264 14966 ft 237 kts 290°
2026-05-07 10:07 39.82506 2.33294 14966 ft 239 kts 284°
2026-05-07 10:07 39.82573 2.31182 14972 ft 235 kts 258°
2026-05-07 10:07 39.82176 2.29114 14971 ft 237 kts 251°
2026-05-07 10:07 39.81654 2.27060 14978 ft 240 kts 249°
2026-05-07 10:08 39.81107 2.24992 14976 ft 244 kts 250°
2026-05-07 10:08 39.80565 2.22882 14977 ft 246 kts 250°
2026-05-07 10:08 39.80063 2.20768 14978 ft 248 kts 251°
2026-05-07 10:08 39.79555 2.18619 14977 ft 249 kts 251°
2026-05-07 10:09 39.79053 2.16462 14976 ft 249 kts 251°
2026-05-07 10:09 39.78541 2.14302 14971 ft 249 kts 251°
2026-05-07 10:09 39.78035 2.12165 14976 ft 251 kts 252°
2026-05-07 10:09 39.77523 2.09991 14977 ft 252 kts 251°
2026-05-07 10:10 39.77006 2.07808 14979 ft 253 kts 251°
2026-05-07 10:10 39.76491 2.05620 14978 ft 254 kts 251°
2026-05-07 10:10 39.75970 2.03425 14978 ft 254 kts 251°
2026-05-07 10:10 39.75452 2.01230 14979 ft 255 kts 251°
2026-05-07 10:11 39.74929 1.99022 14979 ft 255 kts 251°
2026-05-07 10:11 39.74406 1.96822 14977 ft 255 kts 251°
2026-05-07 10:11 39.73890 1.94645 14974 ft 255 kts 251°
2026-05-07 10:11 39.73366 1.92443 14974 ft 255 kts 251°
2026-05-07 10:12 39.72843 1.90238 14984 ft 255 kts 251°
2026-05-07 10:12 39.72322 1.88037 14979 ft 256 kts 251°
2026-05-07 10:12 39.71793 1.85822 14978 ft 256 kts 251°
2026-05-07 10:12 39.71265 1.83612 14977 ft 256 kts 251°
2026-05-07 10:13 39.70735 1.81405 14974 ft 256 kts 251°
2026-05-07 10:13 39.70212 1.79195 14975 ft 256 kts 251°
2026-05-07 10:13 39.69680 1.76988 14974 ft 256 kts 251°
2026-05-07 10:13 39.69152 1.74775 14974 ft 257 kts 251°
2026-05-07 10:14 39.68622 1.72555 14974 ft 257 kts 251°
2026-05-07 10:14 39.68091 1.70344 14975 ft 256 kts 251°
2026-05-07 10:14 39.67559 1.68129 14973 ft 256 kts 251°
2026-05-07 10:14 39.67026 1.65926 14973 ft 256 kts 251°
2026-05-07 10:15 39.66506 1.63746 14977 ft 256 kts 251°
2026-05-07 10:15 39.65973 1.61539 14977 ft 256 kts 251°
2026-05-07 10:15 39.65439 1.59328 14972 ft 257 kts 251°
2026-05-07 10:15 39.64910 1.57116 14971 ft 257 kts 251°
2026-05-07 10:16 39.64374 1.54910 14969 ft 256 kts 250°
2026-05-07 10:16 39.63842 1.52704 14979 ft 256 kts 251°
2026-05-07 10:16 39.63304 1.50498 14974 ft 257 kts 251°
2026-05-07 10:16 39.62770 1.48285 14972 ft 257 kts 251°
2026-05-07 10:17 39.62230 1.46068 14971 ft 258 kts 251°
2026-05-07 10:17 39.61694 1.43845 14972 ft 258 kts 251°
2026-05-07 10:17 39.61155 1.41621 14972 ft 258 kts 251°
2026-05-07 10:17 39.60611 1.39396 14973 ft 259 kts 251°
2026-05-07 10:18 39.60117 1.37165 14974 ft 257 kts 258°
2026-05-07 10:18 39.59981 1.34836 14974 ft 260 kts 266°
2026-05-07 10:18 39.59942 1.32523 14974 ft 260 kts 266°
2026-05-07 10:18 39.59893 1.30175 14973 ft 261 kts 266°
2026-05-07 10:19 39.59782 1.27830 14974 ft 261 kts 264°
2026-05-07 10:19 39.59646 1.25482 14974 ft 261 kts 264°
2026-05-07 10:19 39.59514 1.23136 14975 ft 261 kts 263°
2026-05-07 10:19 39.59377 1.20790 14977 ft 261 kts 264°
2026-05-07 10:20 39.59248 1.18443 14977 ft 261 kts 263°
2026-05-07 10:20 39.59112 1.16101 14977 ft 261 kts 263°
2026-05-07 10:20 39.58979 1.13756 14981 ft 261 kts 263°
2026-05-07 10:20 39.58844 1.11405 14978 ft 261 kts 263°
2026-05-07 10:21 39.58706 1.09054 14976 ft 261 kts 264°
2026-05-07 10:21 39.58574 1.06728 14984 ft 262 kts 264°
2026-05-07 10:21 39.58441 1.04370 14986 ft 262 kts 263°
2026-05-07 10:21 39.58303 1.02012 14985 ft 262 kts 263°
2026-05-07 10:22 39.58164 0.99656 14986 ft 262 kts 264°
2026-05-07 10:22 39.58030 0.97299 14986 ft 262 kts 263°
2026-05-07 10:22 39.57937 0.95734 14987 ft 262 kts 263°
2026-05-07 10:22 39.57796 0.93379 14986 ft 262 kts 264°
2026-05-07 10:23 39.57658 0.91023 14985 ft 262 kts 264°
2026-05-07 10:23 39.57517 0.88666 14984 ft 262 kts 264°
2026-05-07 10:23 39.57376 0.86305 14985 ft 262 kts 264°
2026-05-07 10:23 39.57237 0.83947 14985 ft 262 kts 263°
2026-05-07 10:24 39.57099 0.81589 14984 ft 262 kts 263°
2026-05-07 10:24 39.56954 0.79231 14984 ft 262 kts 263°
2026-05-07 10:24 39.56813 0.76876 14985 ft 262 kts 263°
2026-05-07 10:24 39.56671 0.74521 14990 ft 262 kts 263°
2026-05-07 10:25 39.56527 0.72153 14989 ft 263 kts 263°
2026-05-07 10:25 39.56388 0.69820 14988 ft 263 kts 263°
2026-05-07 10:25 39.56243 0.67446 14988 ft 264 kts 264°
2026-05-07 10:25 39.56100 0.65073 14988 ft 264 kts 264°
2026-05-07 10:26 39.55955 0.62699 14988 ft 264 kts 263°
2026-05-07 10:26 39.55808 0.60328 14986 ft 264 kts 263°
2026-05-07 10:26 39.55658 0.57954 14986 ft 264 kts 263°
2026-05-07 10:26 39.55513 0.55579 14985 ft 264 kts 263°
2026-05-07 10:27 39.55364 0.53205 14985 ft 264 kts 263°
2026-05-07 10:27 39.55218 0.50857 14985 ft 264 kts 263°
2026-05-07 10:27 39.55070 0.48488 14985 ft 264 kts 263°
2026-05-07 10:27 39.54921 0.46116 14985 ft 264 kts 263°
2026-05-07 10:28 39.54773 0.43743 14987 ft 264 kts 263°
2026-05-07 10:28 39.54623 0.41371 14987 ft 264 kts 263°
2026-05-07 10:28 39.54472 0.38999 14987 ft 264 kts 263°
2026-05-07 10:28 39.54322 0.36628 14989 ft 264 kts 263°
2026-05-07 10:29 39.54171 0.34257 14989 ft 264 kts 263°
2026-05-07 10:29 39.54021 0.31880 14988 ft 264 kts 263°
2026-05-07 10:29 39.53871 0.29506 14988 ft 264 kts 263°
2026-05-07 10:30 39.53557 0.24761 14989 ft 264 kts 263°
2026-05-07 10:30 39.53405 0.22386 14989 ft 264 kts 263°
2026-05-07 10:30 39.53251 0.20047 14990 ft 264 kts 263°
2026-05-07 10:30 39.53098 0.17672 14990 ft 264 kts 263°
2026-05-07 10:31 39.52941 0.15301 14993 ft 264 kts 263°
2026-05-07 10:31 39.52785 0.12925 14991 ft 265 kts 263°
2026-05-07 10:31 39.52629 0.10550 14991 ft 265 kts 263°
2026-05-07 10:31 39.52471 0.08174 14991 ft 265 kts 263°
2026-05-07 10:32 39.52314 0.05800 14990 ft 265 kts 263°
2026-05-07 10:32 39.52154 0.03415 14991 ft 265 kts 263°
2026-05-07 10:32 39.51997 0.01043 14991 ft 265 kts 263°
2026-05-07 10:32 39.51837 -0.01335 14996 ft 265 kts 263°
2026-05-07 10:33 39.51680 -0.03679 14992 ft 265 kts 262°
2026-05-07 10:33 39.51516 -0.06056 14991 ft 265 kts 263°
2026-05-07 10:33 39.51357 -0.08430 14990 ft 265 kts 263°
2026-05-07 10:33 39.51198 -0.10806 14992 ft 265 kts 263°
2026-05-07 10:34 39.51032 -0.13180 14994 ft 265 kts 263°
2026-05-07 10:34 39.50871 -0.15556 14994 ft 265 kts 263°
2026-05-07 10:34 39.50711 -0.17939 14992 ft 265 kts 262°
2026-05-07 10:34 39.50547 -0.20313 14993 ft 265 kts 263°
2026-05-07 10:35 39.50421 -0.22687 14980 ft 263 kts 270°
2026-05-07 10:35 39.50955 -0.25021 14576 ft 283 kts 296°
2026-05-07 10:35 39.51977 -0.27295 14112 ft 299 kts 299°
2026-05-07 10:35 39.53064 -0.29518 13568 ft 293 kts 301°
2026-05-07 10:36 39.54187 -0.31752 12800 ft 296 kts 301°
2026-05-07 10:36 39.55300 -0.33941 12167 ft 293 kts 301°
2026-05-07 10:36 39.56417 -0.36138 11552 ft 290 kts 301°
2026-05-07 10:36 39.57513 -0.38315 10980 ft 286 kts 301°
2026-05-07 10:37 39.58587 -0.40469 10362 ft 283 kts 301°
2026-05-07 10:37 39.59650 -0.42604 9760 ft 280 kts 302°
2026-05-07 10:37 39.60686 -0.44723 9128 ft 277 kts 302°
2026-05-07 10:37 39.61706 -0.46835 8458 ft 276 kts 301°
2026-05-07 10:38 39.62718 -0.48948 7844 ft 274 kts 301°
2026-05-07 10:38 39.63714 -0.51048 7255 ft 273 kts 301°
2026-05-07 10:38 39.64705 -0.53153 6806 ft 274 kts 301°
2026-05-07 10:38 39.65679 -0.55271 6423 ft 272 kts 302°
2026-05-07 10:39 39.66630 -0.57386 5922 ft 269 kts 301°
2026-05-07 10:39 39.67569 -0.59498 5297 ft 268 kts 300°
2026-05-07 10:39 39.68036 -0.61805 4724 ft 266 kts 268°
2026-05-07 10:39 39.67525 -0.63920 4486 ft 232 kts 233°
2026-05-07 10:40 39.66421 -0.65233 4239 ft 205 kts 214°
2026-05-07 10:40 39.65320 -0.66301 3980 ft 196 kts 212°
2026-05-07 10:40 39.64224 -0.67321 3786 ft 194 kts 212°
2026-05-07 10:40 39.63111 -0.68313 3634 ft 194 kts 211°
2026-05-07 10:41 39.61897 -0.68935 3438 ft 186 kts 176°
2026-05-07 10:41 39.60704 -0.68446 3221 ft 178 kts 152°
2026-05-07 10:41 39.59584 -0.67757 3058 ft 178 kts 151°
2026-05-07 10:41 39.58453 -0.67098 2926 ft 180 kts 152°
2026-05-07 10:42 39.57291 -0.66456 2813 ft 181 kts 153°
2026-05-07 10:42 39.56145 -0.65807 2751 ft 178 kts 151°
2026-05-07 10:42 39.55229 -0.64789 2645 ft 174 kts 118°
2026-05-07 10:42 39.54635 -0.63424 2519 ft 172 kts 114°
2026-05-07 10:43 39.54154 -0.62132 2531 ft 149 kts 112°
2026-05-07 10:43 39.53725 -0.60914 2358 ft 148 kts 111°
2026-05-07 10:43 39.53294 -0.59696 2079 ft 150 kts 113°
2026-05-07 10:43 39.52821 -0.58487 1752 ft 150 kts 114°
2026-05-07 10:44 39.52378 -0.57308 1430 ft 137 kts 114°
2026-05-07 10:44 39.52005 -0.56303 1226 ft 117 kts 112°
2026-05-07 10:44 39.51674 -0.55367 1010 ft 113 kts 112°
2026-05-07 10:44 39.51356 -0.54490 960 ft 103 kts 113°
2026-05-07 10:45 39.51031 -0.53632 848 ft 110 kts 113°
2026-05-07 10:45 39.50694 -0.52753 728 ft 108 kts 114°
2026-05-07 10:45 39.50359 -0.51891 580 ft 106 kts 112°
2026-05-07 10:45 39.50031 -0.51037 447 ft 106 kts 112°
2026-05-07 10:46 39.49701 -0.50181 304 ft 105 kts 112°
2026-05-07 10:46 39.49390 -0.49367 212 ft 90 kts 114°
2026-05-07 10:46 39.49158 -0.48755 210 ft 60 kts 114°
2026-05-07 10:46 39.49038 -0.48441 211 ft 21 kts 118°
2026-05-07 10:47 39.48982 -0.48280 205 ft 20 kts 107°
2026-05-07 10:47 39.48979 -0.48115 213 ft 15 kts 77°
2026-05-07 10:47 39.49004 -0.47977 206 ft 17 kts 77°
2026-05-07 10:47 39.49029 -0.47833 206 ft 15 kts 77°
2026-05-07 10:48 39.49101 -0.47754 208 ft 16 kts 25°
2026-05-07 10:48 39.49212 -0.47685 210 ft 17 kts 25°
2026-05-07 10:48 39.49294 -0.47633 214 ft 9 kts 26°
2026-05-07 10:48 39.49339 -0.47603 211 ft 5 kts 32°
2026-05-07 10:49 39.49340 -0.47571 208 ft 4 kts 108°
2026-05-07 10:49 39.49329 -0.47543 209 ft 0 kts 116°